Year,Month,Day,Hour,Minute,Value (Times are PST for temperature in C)
2015,06,22,10,31,20.40
2015,06,22,10,32,20.50
2015,06,22,10,33,20.50
2015,06,22,10,34,20.50
2015,06,22,10,35,20.40
2015,06,22,10,36,20.40
2015,06,22,10,37,20.20
2015,06,22,10,38,20.10
2015,06,22,10,39,20.00
2015,06,22,10,40,19.90
2015,06,22,10,41,19.80
2015,06,22,10,42,19.80
2015,06,22,10,43,19.80
2015,06,22,10,44,19.80
2015,06,22,10,45,19.80
2015,06,22,10,46,19.90
2015,06,22,10,47,19.90
2015,06,22,10,48,20.00
2015,06,22,10,49,20.10
2015,06,22,10,50,20.10
2015,06,22,10,51,20.20
2015,06,22,10,52,20.40
2015,06,22,10,53,20.50
2015,06,22,10,54,20.50
2015,06,22,10,55,20.50
2015,06,22,10,56,20.50
2015,06,22,10,57,20.50
2015,06,22,10,58,20.40
2015,06,22,10,59,20.30
2015,06,22,11,00,20.30
2015,06,22,11,01,20.30
2015,06,22,11,02,20.30
2015,06,22,11,03,20.30
2015,06,22,11,04,20.20
2015,06,22,11,05,20.20
2015,06,22,11,06,20.20
2015,06,22,11,07,20.30
2015,06,22,11,08,20.30
2015,06,22,11,09,20.20
2015,06,22,11,10,20.30
2015,06,22,11,11,20.20
2015,06,22,11,12,20.20
2015,06,22,11,13,20.20
2015,06,22,11,14,20.10
2015,06,22,11,15,20.10
2015,06,22,11,16,20.10
2015,06,22,11,17,20.10
2015,06,22,11,18,20.20
2015,06,22,11,19,20.40
2015,06,22,11,20,20.60
2015,06,22,11,21,20.60
2015,06,22,11,22,20.60
2015,06,22,11,23,20.60
2015,06,22,11,24,20.60
2015,06,22,11,25,20.60
2015,06,22,11,26,20.70
2015,06,22,11,27,20.80
2015,06,22,11,28,21.00
2015,06,22,11,29,21.10
2015,06,22,11,30,21.20
2015,06,22,11,31,21.20
2015,06,22,11,32,21.20
2015,06,22,11,33,21.20
2015,06,22,11,34,21.10
2015,06,22,11,35,21.10
2015,06,22,11,36,21.10
2015,06,22,11,37,21.00
2015,06,22,11,38,21.00
2015,06,22,11,39,21.00
2015,06,22,11,40,20.80
2015,06,22,11,41,20.70
2015,06,22,11,42,20.50
2015,06,22,11,43,20.40
2015,06,22,11,44,20.40
2015,06,22,11,45,20.30
2015,06,22,11,46,20.10
2015,06,22,11,47,20.00
2015,06,22,11,48,19.90
2015,06,22,11,49,19.90
2015,06,22,11,50,19.80
2015,06,22,11,51,19.70
2015,06,22,11,52,19.80
2015,06,22,11,53,19.70
2015,06,22,11,54,19.70
2015,06,22,11,55,19.70
2015,06,22,11,56,19.70
2015,06,22,11,57,19.70
2015,06,22,11,58,19.70
2015,06,22,11,59,19.70
2015,06,22,12,00,19.80
2015,06,22,12,01,19.80
2015,06,22,12,02,19.70
2015,06,22,12,03,19.60
2015,06,22,12,04,19.50
2015,06,22,12,05,19.40
2015,06,22,12,06,19.40
2015,06,22,12,07,19.40
2015,06,22,12,08,19.30
2015,06,22,12,09,19.30
2015,06,22,12,10,19.20
2015,06,22,12,11,19.20
2015,06,22,12,12,19.20
2015,06,22,12,13,19.30
2015,06,22,12,14,19.40
2015,06,22,12,15,19.40
2015,06,22,12,16,19.60
2015,06,22,12,17,19.70
2015,06,22,12,18,19.70
2015,06,22,12,19,19.80
2015,06,22,12,20,19.90
2015,06,22,12,21,20.00
2015,06,22,12,22,20.10
2015,06,22,12,23,20.10
2015,06,22,12,24,19.90
2015,06,22,12,25,19.90
2015,06,22,12,26,19.90
2015,06,22,12,27,19.90
2015,06,22,12,28,19.90
2015,06,22,12,29,19.90
2015,06,22,12,30,19.90
2015,06,22,12,31,19.90
2015,06,22,12,32,19.80
2015,06,22,12,33,19.80
2015,06,22,12,34,19.80
2015,06,22,12,35,19.70
2015,06,22,12,36,19.60
2015,06,22,12,37,19.60
2015,06,22,12,38,19.60
2015,06,22,12,39,19.50
2015,06,22,12,40,19.50
2015,06,22,12,41,19.60
2015,06,22,12,42,19.80
2015,06,22,12,43,19.90
2015,06,22,12,44,20.00
2015,06,22,12,45,20.10
2015,06,22,12,46,20.20
2015,06,22,12,47,20.30
2015,06,22,12,48,20.20
2015,06,22,12,49,20.10
2015,06,22,12,50,20.00
2015,06,22,12,51,19.90
2015,06,22,12,52,20.00
2015,06,22,12,53,20.00
2015,06,22,12,54,19.90
2015,06,22,12,55,19.90
2015,06,22,12,56,19.70
2015,06,22,12,57,19.70
2015,06,22,12,58,19.80
2015,06,22,12,59,19.80
2015,06,22,13,00,19.90
2015,06,22,13,01,20.00
2015,06,22,13,02,20.20
2015,06,22,13,03,20.20
2015,06,22,13,04,20.20
2015,06,22,13,05,20.20
2015,06,22,13,06,20.20
2015,06,22,13,07,20.20
2015,06,22,13,08,20.20
2015,06,22,13,09,20.20
2015,06,22,13,10,20.20
2015,06,22,13,11,20.20
2015,06,22,13,12,20.30
2015,06,22,13,13,20.40
2015,06,22,13,14,20.40
2015,06,22,13,15,20.40
2015,06,22,13,16,20.50
2015,06,22,13,17,20.60
2015,06,22,13,18,20.70
2015,06,22,13,19,20.70
2015,06,22,13,20,20.60
2015,06,22,13,21,20.50
2015,06,22,13,22,20.40
2015,06,22,13,23,20.40
2015,06,22,13,24,20.40
2015,06,22,13,25,20.60
2015,06,22,13,26,20.60
2015,06,22,13,27,20.70
2015,06,22,13,28,20.70
2015,06,22,13,29,20.60
2015,06,22,13,30,20.60
2015,06,22,13,31,20.60
2015,06,22,13,32,20.60
2015,06,22,13,33,20.60
2015,06,22,13,34,20.70
2015,06,22,13,35,20.80
2015,06,22,13,36,20.80
2015,06,22,13,37,20.70
2015,06,22,13,38,20.70
2015,06,22,13,39,20.60
2015,06,22,13,40,20.60
2015,06,22,13,41,20.70
2015,06,22,13,42,20.50
2015,06,22,13,43,20.50
2015,06,22,13,44,20.50
2015,06,22,13,45,20.40
2015,06,22,13,46,20.30
2015,06,22,13,47,20.40
2015,06,22,13,48,20.40
2015,06,22,13,49,20.40
2015,06,22,13,50,20.40
2015,06,22,13,51,20.40
2015,06,22,13,52,20.40
2015,06,22,13,53,20.40
2015,06,22,13,54,20.40
2015,06,22,13,55,20.40
2015,06,22,13,56,20.40
2015,06,22,13,57,20.40
2015,06,22,13,58,20.40
2015,06,22,13,59,20.50
2015,06,22,14,00,20.40
2015,06,22,14,01,20.40
2015,06,22,14,02,20.40
2015,06,22,14,03,20.40
2015,06,22,14,04,20.40
2015,06,22,14,05,20.40
2015,06,22,14,06,20.40
2015,06,22,14,07,20.40
2015,06,22,14,08,20.40
2015,06,22,14,09,20.30
2015,06,22,14,10,20.30
2015,06,22,14,11,20.30
2015,06,22,14,12,20.30
2015,06,22,14,13,20.30
2015,06,22,14,14,20.30
2015,06,22,14,15,20.30
2015,06,22,14,16,20.40
2015,06,22,14,17,20.40
2015,06,22,14,18,20.40
2015,06,22,14,19,20.40
2015,06,22,14,20,20.30
2015,06,22,14,21,20.30
2015,06,22,14,22,20.40
2015,06,22,14,23,20.40
2015,06,22,14,24,20.40
2015,06,22,14,25,20.40
2015,06,22,14,26,20.50
2015,06,22,14,27,20.50
2015,06,22,14,28,20.60
2015,06,22,14,29,20.70
2015,06,22,14,30,20.80
2015,06,22,14,31,20.90
2015,06,22,14,32,21.00
2015,06,22,14,33,21.10
2015,06,22,14,34,21.30
2015,06,22,14,35,21.30
2015,06,22,14,36,21.10
2015,06,22,14,37,21.00
2015,06,22,14,38,20.90
2015,06,22,14,39,20.90
2015,06,22,14,40,21.00
2015,06,22,14,41,21.10
2015,06,22,14,42,21.20
2015,06,22,14,43,21.30
2015,06,22,14,44,21.40
2015,06,22,14,45,21.50
2015,06,22,14,46,21.60
2015,06,22,14,47,21.80
2015,06,22,14,48,21.90
2015,06,22,14,49,21.90
2015,06,22,14,50,21.90
2015,06,22,14,51,21.90
2015,06,22,14,52,21.90
2015,06,22,14,53,21.90
2015,06,22,14,54,21.80
2015,06,22,14,55,21.80
2015,06,22,14,56,21.90
2015,06,22,14,57,21.90
2015,06,22,14,58,21.90
2015,06,22,14,59,21.90
2015,06,22,15,00,21.90
2015,06,22,15,01,22.00
2015,06,22,15,02,22.10
2015,06,22,15,03,22.30
2015,06,22,15,04,22.40
2015,06,22,15,05,22.60
2015,06,22,15,06,22.60
2015,06,22,15,07,22.70
2015,06,22,15,08,22.90
2015,06,22,15,09,23.00
2015,06,22,15,10,23.10
2015,06,22,15,11,23.00
2015,06,22,15,12,23.10
2015,06,22,15,13,23.00
2015,06,22,15,14,22.90
2015,06,22,15,15,22.90
2015,06,22,15,16,22.90
2015,06,22,15,17,23.00
2015,06,22,15,18,23.10
2015,06,22,15,19,23.20
2015,06,22,15,20,23.20
2015,06,22,15,21,23.20
2015,06,22,15,22,23.20
2015,06,22,15,23,23.10
2015,06,22,15,24,22.90
2015,06,22,15,25,22.90
2015,06,22,15,26,23.00
2015,06,22,15,27,23.10
2015,06,22,15,28,23.00
2015,06,22,15,29,22.90
2015,06,22,15,30,22.90
2015,06,22,15,31,22.90
2015,06,22,15,32,22.90
2015,06,22,15,33,22.90
2015,06,22,15,34,22.90
2015,06,22,15,35,22.80
2015,06,22,15,36,22.70
2015,06,22,15,37,22.60
2015,06,22,15,38,22.40
2015,06,22,15,39,22.20
2015,06,22,15,40,22.10
2015,06,22,15,41,22.10
2015,06,22,15,42,22.10
2015,06,22,15,43,22.10
2015,06,22,15,44,22.10
2015,06,22,15,45,22.10
2015,06,22,15,46,22.10
2015,06,22,15,47,22.00
2015,06,22,15,48,21.80
2015,06,22,15,49,21.60
2015,06,22,15,50,21.60
2015,06,22,15,51,21.60
2015,06,22,15,52,21.60
2015,06,22,15,53,21.60
2015,06,22,15,54,21.60
2015,06,22,15,55,21.70
2015,06,22,15,56,21.60
2015,06,22,15,57,21.60
2015,06,22,15,58,21.60
2015,06,22,15,59,21.60
2015,06,22,16,00,21.60
2015,06,22,16,01,21.70
2015,06,22,16,02,21.80
2015,06,22,16,03,21.80
2015,06,22,16,04,21.90
2015,06,22,16,05,22.00
2015,06,22,16,06,22.10
2015,06,22,16,07,22.30
2015,06,22,16,08,22.50
2015,06,22,16,09,22.60
2015,06,22,16,10,22.70
2015,06,22,16,11,22.70
2015,06,22,16,12,22.60
2015,06,22,16,13,22.50
2015,06,22,16,14,22.40
2015,06,22,16,15,22.20
2015,06,22,16,16,22.10
2015,06,22,16,17,22.10
2015,06,22,16,18,22.00
2015,06,22,16,19,21.80
2015,06,22,16,20,21.70
2015,06,22,16,21,21.70
2015,06,22,16,22,21.60
2015,06,22,16,23,21.60
2015,06,22,16,24,21.70
2015,06,22,16,25,21.70
2015,06,22,16,26,21.80
2015,06,22,16,27,21.80
2015,06,22,16,28,21.90
2015,06,22,16,29,22.00
2015,06,22,16,30,22.00
2015,06,22,16,31,22.10
2015,06,22,16,32,22.10
2015,06,22,16,33,22.10
2015,06,22,16,34,22.10
2015,06,22,16,35,22.10
2015,06,22,16,36,22.00
2015,06,22,16,37,22.00
2015,06,22,16,38,22.00
2015,06,22,16,39,22.00
2015,06,22,16,40,22.00
2015,06,22,16,41,22.10
2015,06,22,16,42,22.20
2015,06,22,16,43,22.40
2015,06,22,16,44,22.40
2015,06,22,16,45,22.50
2015,06,22,16,46,22.50
2015,06,22,16,47,22.60
2015,06,22,16,48,22.60
2015,06,22,16,49,22.60
2015,06,22,16,50,22.60
2015,06,22,16,51,22.60
2015,06,22,16,52,22.70
2015,06,22,16,53,22.60
2015,06,22,16,54,22.50
2015,06,22,16,55,22.50
2015,06,22,16,56,22.50
2015,06,22,16,57,22.50
2015,06,22,16,58,22.50
2015,06,22,16,59,22.40
2015,06,22,17,00,22.40
2015,06,22,17,01,22.30
2015,06,22,17,02,22.20
2015,06,22,17,03,22.20
2015,06,22,17,04,22.20
2015,06,22,17,05,22.20
2015,06,22,17,06,22.20
2015,06,22,17,07,22.20
2015,06,22,17,08,22.30
2015,06,22,17,09,22.50
2015,06,22,17,10,22.60
2015,06,22,17,11,22.50
2015,06,22,17,12,22.40
2015,06,22,17,13,22.40
2015,06,22,17,14,22.30
2015,06,22,17,15,22.40
2015,06,22,17,16,22.40
2015,06,22,17,17,22.40
2015,06,22,17,18,22.50
2015,06,22,17,19,22.40
2015,06,22,17,20,22.30
2015,06,22,17,21,22.30
2015,06,22,17,22,22.20
2015,06,22,17,23,22.10
2015,06,22,17,24,22.10
2015,06,22,17,25,22.10
2015,06,22,17,26,22.00
2015,06,22,17,27,22.00
2015,06,22,17,28,21.90
2015,06,22,17,29,21.90
2015,06,22,17,30,21.90
2015,06,22,17,31,21.80
2015,06,22,17,32,21.80
2015,06,22,17,33,21.80
2015,06,22,17,34,21.90
2015,06,22,17,35,22.00
2015,06,22,17,36,22.00
2015,06,22,17,37,22.00
2015,06,22,17,38,22.10
2015,06,22,17,39,22.10
2015,06,22,17,40,22.20
2015,06,22,17,41,22.20
2015,06,22,17,42,22.20
2015,06,22,17,43,22.20
2015,06,22,17,44,22.10
2015,06,22,17,45,22.10
2015,06,22,17,46,22.10
2015,06,22,17,47,22.00
2015,06,22,17,48,21.90
2015,06,22,17,49,21.80
2015,06,22,17,50,21.90
2015,06,22,17,51,21.90
2015,06,22,17,52,21.90
2015,06,22,17,53,21.90
2015,06,22,17,54,22.00
2015,06,22,17,55,22.00
2015,06,22,17,56,22.10
2015,06,22,17,57,22.10
2015,06,22,17,58,22.20
2015,06,22,17,59,22.20
2015,06,22,18,00,22.20
2015,06,22,18,01,22.30
2015,06,22,18,02,22.30
2015,06,22,18,03,22.40
2015,06,22,18,04,22.50
2015,06,22,18,05,22.60
2015,06,22,18,06,22.70
2015,06,22,18,07,22.70
2015,06,22,18,08,22.80
2015,06,22,18,09,22.70
2015,06,22,18,10,22.70
2015,06,22,18,11,22.60
2015,06,22,18,12,22.50
2015,06,22,18,13,22.50
2015,06,22,18,14,22.40
2015,06,22,18,15,22.40
2015,06,22,18,16,22.40
2015,06,22,18,17,22.40
2015,06,22,18,18,22.40
2015,06,22,18,19,22.40
2015,06,22,18,20,22.40
2015,06,22,18,21,22.40
2015,06,22,18,22,22.40
2015,06,22,18,23,22.40
2015,06,22,18,24,22.40
2015,06,22,18,25,22.40
2015,06,22,18,26,22.30
2015,06,22,18,27,22.30
2015,06,22,18,28,22.40
2015,06,22,18,29,22.30
2015,06,22,18,30,22.30
2015,06,22,18,31,22.40
2015,06,22,18,32,22.40
2015,06,22,18,33,22.40
2015,06,22,18,34,22.50
2015,06,22,18,35,22.50
2015,06,22,18,36,22.50
2015,06,22,18,37,22.50
2015,06,22,18,38,22.40
2015,06,22,18,39,22.40
2015,06,22,18,40,22.40
2015,06,22,18,41,22.30
2015,06,22,18,42,22.30
2015,06,22,18,43,22.20
2015,06,22,18,44,22.20
2015,06,22,18,45,22.10
2015,06,22,18,46,22.10
2015,06,22,18,47,22.10
2015,06,22,18,48,22.20
2015,06,22,18,49,22.20
2015,06,22,18,50,22.30
2015,06,22,18,51,22.30
2015,06,22,18,52,22.20
2015,06,22,18,53,22.20
2015,06,22,18,54,22.20
2015,06,22,18,55,22.20
2015,06,22,18,56,22.20
2015,06,22,18,57,22.20
2015,06,22,18,58,22.20
2015,06,22,18,59,22.20
2015,06,22,19,00,22.20
2015,06,22,19,01,22.20
2015,06,22,19,02,22.20
2015,06,22,19,03,22.20
2015,06,22,19,04,22.10
2015,06,22,19,05,22.10
2015,06,22,19,06,22.10
2015,06,22,19,07,22.10
2015,06,22,19,08,22.10
2015,06,22,19,09,22.10
2015,06,22,19,10,22.10
2015,06,22,19,11,22.20
2015,06,22,19,12,22.20
2015,06,22,19,13,22.20
2015,06,22,19,14,22.20
2015,06,22,19,15,22.20
2015,06,22,19,16,22.30
2015,06,22,19,17,22.20
2015,06,22,19,18,22.20
2015,06,22,19,19,22.20
2015,06,22,19,20,22.10
2015,06,22,19,21,22.10
2015,06,22,19,22,22.20
2015,06,22,19,23,22.10
2015,06,22,19,24,22.10
2015,06,22,19,25,22.00
2015,06,22,19,26,22.00
2015,06,22,19,27,21.90
2015,06,22,19,28,21.90
2015,06,22,19,29,21.90
2015,06,22,19,30,21.80
2015,06,22,19,31,21.80
2015,06,22,19,32,21.90
2015,06,22,19,33,21.90
2015,06,22,19,34,21.90
2015,06,22,19,35,21.90
2015,06,22,19,36,21.80
2015,06,22,19,37,21.80
2015,06,22,19,38,21.80
2015,06,22,19,39,21.80
2015,06,22,19,40,21.70
2015,06,22,19,41,21.70
2015,06,22,19,42,21.70
2015,06,22,19,43,21.60
2015,06,22,19,44,21.60
2015,06,22,19,45,21.60
2015,06,22,19,46,21.60
2015,06,22,19,47,21.60
2015,06,22,19,48,21.60
2015,06,22,19,49,21.60
2015,06,22,19,50,21.60
2015,06,22,19,51,21.60
2015,06,22,19,52,21.60
2015,06,22,19,53,21.60
2015,06,22,19,54,21.60
2015,06,22,19,55,21.60
2015,06,22,19,56,21.60
2015,06,22,19,57,21.60
2015,06,22,19,58,21.50
2015,06,22,19,59,21.40
2015,06,22,20,00,21.40
2015,06,22,20,01,21.30
2015,06,22,20,02,21.30
2015,06,22,20,03,21.30
2015,06,22,20,04,21.30
2015,06,22,20,05,21.20
2015,06,22,20,06,21.20
2015,06,22,20,07,21.20
2015,06,22,20,08,21.10
2015,06,22,20,09,21.10
2015,06,22,20,10,21.10
2015,06,22,20,11,21.00
2015,06,22,20,12,21.00
2015,06,22,20,13,21.00
2015,06,22,20,14,21.00
2015,06,22,20,15,20.90
2015,06,22,20,16,20.80
2015,06,22,20,17,20.70
2015,06,22,20,18,20.60
2015,06,22,20,19,20.60
2015,06,22,20,20,20.50
2015,06,22,20,21,20.50
2015,06,22,20,22,20.40
2015,06,22,20,23,20.40
2015,06,22,20,24,20.30
2015,06,22,20,25,20.30
2015,06,22,20,26,20.20
2015,06,22,20,27,20.20
2015,06,22,20,28,20.10
2015,06,22,20,29,20.00
2015,06,22,20,30,19.90
2015,06,22,20,31,19.90
2015,06,22,20,32,19.90
2015,06,22,20,33,19.80
2015,06,22,20,34,19.80
2015,06,22,20,35,19.70
2015,06,22,20,36,19.70
2015,06,22,20,37,19.60
2015,06,22,20,38,19.60
2015,06,22,20,39,19.60
2015,06,22,20,40,19.50
2015,06,22,20,41,19.50
2015,06,22,20,42,19.40
2015,06,22,20,43,19.40
2015,06,22,20,44,19.30
2015,06,22,20,45,19.30
2015,06,22,20,46,19.30
2015,06,22,20,47,19.20
2015,06,22,20,48,19.20
2015,06,22,20,49,19.10
2015,06,22,20,50,19.10
2015,06,22,20,51,19.10
2015,06,22,20,52,19.00
2015,06,22,20,53,18.90
2015,06,22,20,54,18.90
2015,06,22,20,55,18.80
2015,06,22,20,56,18.70
2015,06,22,20,57,18.60
2015,06,22,20,58,18.60
2015,06,22,20,59,18.50
2015,06,22,21,00,18.40
2015,06,22,21,01,18.30
2015,06,22,21,02,18.30
2015,06,22,21,03,18.20
2015,06,22,21,04,18.20
2015,06,22,21,05,18.10
2015,06,22,21,06,18.00
2015,06,22,21,07,17.90
2015,06,22,21,08,17.90
2015,06,22,21,09,17.80
2015,06,22,21,10,17.80
2015,06,22,21,11,17.70
2015,06,22,21,12,17.70
2015,06,22,21,13,17.60
2015,06,22,21,14,17.50
2015,06,22,21,15,17.50
2015,06,22,21,16,17.40
2015,06,22,21,17,17.40
2015,06,22,21,18,17.30
2015,06,22,21,19,17.30
2015,06,22,21,20,17.30
2015,06,22,21,21,17.30
2015,06,22,21,22,17.20
2015,06,22,21,23,17.20
2015,06,22,21,24,17.10
2015,06,22,21,25,17.10
2015,06,22,21,26,17.00
2015,06,22,21,27,17.00
2015,06,22,21,28,17.00
2015,06,22,21,29,16.90
2015,06,22,21,30,16.90
2015,06,22,21,31,16.90
2015,06,22,21,32,16.90
2015,06,22,21,33,16.80
2015,06,22,21,34,16.80
2015,06,22,21,35,16.80
2015,06,22,21,36,16.80
2015,06,22,21,37,16.80
2015,06,22,21,38,16.70
2015,06,22,21,39,16.70
2015,06,22,21,40,16.70
2015,06,22,21,41,16.70
2015,06,22,21,42,16.70
2015,06,22,21,43,16.70
2015,06,22,21,44,16.70
2015,06,22,21,45,16.70
2015,06,22,21,46,16.60
2015,06,22,21,47,16.60
2015,06,22,21,48,16.60
2015,06,22,21,49,16.50
2015,06,22,21,50,16.40
2015,06,22,21,51,16.40
2015,06,22,21,52,16.40
2015,06,22,21,53,16.40
2015,06,22,21,54,16.50
2015,06,22,21,55,16.60
2015,06,22,21,56,16.60
2015,06,22,21,57,16.60
2015,06,22,21,58,16.70
2015,06,22,21,59,16.70
2015,06,22,22,00,16.70
2015,06,22,22,01,16.70
2015,06,22,22,02,16.70
2015,06,22,22,03,16.70
2015,06,22,22,04,16.70
2015,06,22,22,05,16.70
2015,06,22,22,06,16.70
2015,06,22,22,07,16.70
2015,06,22,22,08,16.80
2015,06,22,22,09,16.90
2015,06,22,22,10,16.90
2015,06,22,22,11,17.00
2015,06,22,22,12,17.10
2015,06,22,22,13,17.20
2015,06,22,22,14,17.30
2015,06,22,22,15,17.30
2015,06,22,22,16,17.30
2015,06,22,22,17,17.40
2015,06,22,22,18,17.40
2015,06,22,22,19,17.40
2015,06,22,22,20,17.40
2015,06,22,22,21,17.50
2015,06,22,22,22,17.50
2015,06,22,22,23,17.50
2015,06,22,22,24,17.50
2015,06,22,22,25,17.50
2015,06,22,22,26,17.50
2015,06,22,22,27,17.50
2015,06,22,22,28,17.40
2015,06,22,22,29,17.40
2015,06,22,22,30,17.40
2015,06,22,22,31,17.40
2015,06,22,22,32,17.40
2015,06,22,22,33,17.40
2015,06,22,22,34,17.40
2015,06,22,22,35,17.40
2015,06,22,22,36,17.40
2015,06,22,22,37,17.40
2015,06,22,22,38,17.30
2015,06,22,22,39,17.30
2015,06,22,22,40,17.30
2015,06,22,22,41,17.30
2015,06,22,22,42,17.30
2015,06,22,22,43,17.30
2015,06,22,22,44,17.30
2015,06,22,22,45,17.30
2015,06,22,22,46,17.20
2015,06,22,22,47,17.20
2015,06,22,22,48,17.10
2015,06,22,22,49,17.00
2015,06,22,22,50,16.90
2015,06,22,22,51,16.80
2015,06,22,22,52,16.70
2015,06,22,22,53,16.70
2015,06,22,22,54,16.60
2015,06,22,22,55,16.60
2015,06,22,22,56,16.60
2015,06,22,22,57,16.60
2015,06,22,22,58,16.60
2015,06,22,22,59,16.60
2015,06,22,23,00,16.60
2015,06,22,23,01,16.60
2015,06,22,23,02,16.60
2015,06,22,23,03,16.60
2015,06,22,23,04,16.60
2015,06,22,23,05,16.60
